STARLINK-36924, 68054

Orbit data source: Space-Track

STARLINK-36924, 68054 is a payload satellite owned by SpaceX/Seattle (US) in LEO that was launched on Mon, 02 Mar 2026 UTC via an FALCON 9 launch vehicle from the Air Force Eastern Test Range (AFETR). Payload-class satellites include a variety of spacecraft equipped with specific instruments for various scientific and technological missions. These include communications satellites like Starlink; space stations such as the ISS; scientific satellites like the Hubble; Earth observation satellites from companies like Planet Labs, Umbra, and HawkEye 360; GPS; miniature CubeSats for education and research; and military/defense satellites.

Loading next visibility...
Identifier
68054, 2026-041Q
Orbit
LEO
Country
Flag of USUS
Related business
Manufacturer
SpaceX/Seattle
Mission
Operational Commercial Communications
Bus & Motor
STARLINK V2MO, Unknown motor
Mass
575 kg wet, ~530 kg dry
Launch date (UTC)
2026-03-02 (4 months ago)
Launch vehicle
FALCON 9
Launch site
Air Force Eastern Test Range (AFETR)
Object type
Payload
Rocket body
Debris
Shape & HBR
Box + 2 Pan, 17.7 m
Radar Cross Section
36.964 m², Large (>1 m²)

Expand to show TLE details & history
Last TLE update: 1 day ago

TLE from 1 day ago
0 STARLINK-36924
1 68054U 26041Q   26170.66479391  .00015768  00000-0  47661-3 0  9991
2 68054  53.1583 293.9287 0001196  68.4541 291.6589 15.34414521 17036
Epoch: 2026-06-19T15:57Z
TLE epoch observation values (Epoch: 2026-06-19T15:57:18.193Z)
Latitude
-0.00004°
Longitude
146.71235°
Altitude
463.259 km
Speed
7.636 km/s
True Right ascension
19h 35m 42s
True Declination
0° 00' 00"
Sunlit
Object was in full shadow at epoch
Visualization orbit readout
Latitude
Unknown
Longitude
Unknown
Altitude
Unknown
Speed
Unknown
Apparent Right ascension
Unknown
Apparent Declination
Unknown
Sunlit
N/A
Visualization observer readout
Local Sidereal Time
07:21:30
Azimuth
Unknown
Elevation
Unknown
Doppler factor
Unknown
Orbital elements
Apogee altitude
463.735 km
Perigee altitude
462.099 km
Semi-major axis
6,841.054 km
Eccentricity
0.00012
Inclination
53.1583°
RAAN
293.9287°
Arg. of periapsis
68.4541°
True anomaly
291.64616°
Mean anomaly
291.6589°
Eccentric anomaly
291.65253°
Mean motion
3.83582 °/min
Orbital period
93.85 mins
BSTAR
0.00047661
Loading maneuver chart data...
Computing Atmospheric mass density...
Loading historical data...
Loading historical data...
Loading historical data...
Loading historical data...
Loading historical data...
Loading historical data...
Loading historical data...

Documentation

Showing up to 5 results
|